Home > Weather > Lahr > Past weeks

Flag for Germany Weather for the Past 2 Weeks in Lahr, Baden-Württemberg, Germany

Now
36 °F

Overcast.


Feels Like: 36 °F
Forecast: 32 / 44 °F
Wind: 1 mph from Southeast

Location: Lahr

Current Time: Feb 11, 2016 at 10:55:09 PM

Latest Report: Feb 11, 2016 at 9:00 PM


Visibility: 34 mi

Pressure: 29.77 "Hg

Humidity: 82%

Dew point: 31 °F

Location of LahrLocation

Historic Weather in Lahr — Graph

°F

Lahr Temperature Yesterday

Maximum temperature yesterday: 44 °F (at 3:00 PM)
Minimum temperature yesterday: 36 °F (at 8:00 AM)
Average temperature yesterday: 40 °F

High & Low Weather Summary for the Past Weeks

 TemperatureHumidityPressure
High59 °F (Feb 6, 3:00 PM)100% (Jan 28, 8:00 PM)30.52 "Hg (Jan 28, 8:00 PM)
Low34 °F (Feb 6, 8:00 AM)46% (Feb 6, 3:00 PM)29.23 "Hg (Feb 9, 6:00 PM)
Average45 °F81%30.05 "Hg
* Reported Jan 27 9:00 PM — Feb 11 9:00 PM, Lahr, Weather by CustomWeather, © 2016

Note: Actual official high and low records may vary slightly from our data, if they occured in-between our weather recording intervals... More about our weather records

Advertising

Lahr Weather History for the Previous 24 Hours

 ConditionsComfort  
Time TempWeatherWind HumidityBarometerVisibility
9:00 PM
Thu, Feb 11
36 °FOvercast.1 mph82%29.77 "Hg34 mi
8:00 PM39 °FOvercast.2 mph75%29.77 "Hg37 mi
6:00 PM42 °FOvercast.2 mph63%29.75 "Hg47 mi
5:00 PM44 °FOvercast.3 mph57%29.76 "Hg47 mi
3:00 PM46 °FOvercast.5 mph58%29.75 "Hg47 mi
2:00 PM45 °FOvercast.5 mph64%29.78 "Hg47 mi
12:00 PM41 °FOvercast.6 mph76%29.82 "Hg43 mi
11:00 AM40 °FOvercast.5 mph78%29.83 "Hg43 mi
9:00 AM39 °FOvercast.5 mph79%29.81 "Hg34 mi
8:00 AM39 °FOvercast.6 mph80%29.80 "Hg31 mi
6:00 AM38 °FOvercast.8 mph81%29.79 "Hg37 mi
5:00 AM39 °FOvercast.6 mph81%29.79 "Hg40 mi
3:00 AM38 °FLight rain. Overcast.5 mph83%29.78 "Hg22 mi
2:00 AM39 °FLight rain. Overcast.7 mph79%29.76 "Hg34 mi
12:00 AM40 °FOvercast.7 mph78%29.73 "Hg43 mi
11:00 PM
Wed, Feb 10
40 °FOvercast.8 mph76%29.72 "Hg43 mi
Weather by CustomWeather, © 2016

See weather overviewHow to use our weather pages